RH
45 44 44 43 43 42 43 43 43 43 43 43 43 43 42 42 42 41 42 42 42 42 42 42 40 38 38 37 36 34 32 31 30 31 34 35 35 36 34 34 34 37
43 43 42 42 43 44 44 44 44 44 44 45 45 44 43 43 43 43 44 44 44 44 44 43 42 40 39 37 36 34 32 32 32 33 35 36 36 36 36 35 35 39
44 43 43 45 47 47 48 47 46 46 45 45 45 45 44 44 44 44 44 45 45 45 45 44 44 42 40 38 36 35 34 34 34 34 35 36 35 36 36 35 36 40
46 46 47 49 52 52 52 49 46 45 45 44 44 45 45 45 45 45 45 45 45 45 45 45 44 43 41 39 37 36 36 35 36 36 36 36 36 37 37 36 37 41
48 48 50 53 55 55 52 48 44 44 45 46 46 46 46 46 46 46 46 46 46 46 46 45 45 44 42 40 37 37 37 36 36 36 36 36 36 38 38 38 38 43
49 50 53 55 56 54 51 47 46 45 46 47 47 47 48 48 48 48 48 48 48 47 46 46 45 44 43 41 39 38 38 39 39 37 36 35 35 36 39 39 40 44
51 52 56 58 56 53 50 50 49 48 48 48 46 46 48 49 49 48 48 49 48 47 46 45 44 44 43 42 40 40 40 41 41 38 36 35 34 35 38 40 41 44
52 54 57 58 55 54 53 53 53 52 50 48 46 46 47 48 48 48 47 47 47 47 46 45 44 43 42 41 40 41 42 42 42 40 39 37 35 36 39 41 43 46
52 53 56 56 56 56 56 55 54 52 49 47 47 48 48 48 47 47 47 47 47 47 46 46 45 44 43 42 41 42 42 43 42 42 41 40 40 40 41 41 43 48
54 54 55 55 55 57 56 54 51 48 45 46 47 48 47 47 46 46 45 45 45 45 45 45 45 45 45 44 43 43 43 43 43 43 43 43 43 43 43 43 44 49
57 57 57 56 56 57 55 52 47 44 42 43 44 44 43 43 43 42 42 42 42 42 42 43 43 44 44 44 43 42 42 42 43 43 44 44 44 45 45 44 45 50
60 59 58 59 59 58 54 48 43 41 41 42 41 40 39 39 39 39 40 40 40 40 41 41 42 42 42 42 42 41 41 41 41 42 43 44 45 45 46 47 48 52
60 60 61 61 58 53 47 41 39 39 39 38 37 35 34 33 33 33 34 35 36 36 36 37 38 38 39 40 40 41 40 40 40 41 42 44 46 47 48 50 50 53
60 61 61 58 52 46 40 37 35 35 33 32 30 29 28 27 27 26 26 27 28 29 30 31 31 32 33 35 37 38 39 40 40 41 41 43 45 48 50 52 53 55
60 60 57 51 45 40 35 32 30 29 28 27 26 25 24 24 23 22 21 21 22 23 24 25 27 28 29 30 31 33 35 37 38 40 41 42 44 47 50 52 55 57
55 53 48 42 37 34 31 29 28 27 27 26 24 23 22 21 20 19 18 18 18 18 19 21 22 24 26 27 28 29 30 32 34 36 40 43 45 47 50 52 55 58
45 41 38 35 33 32 31 30 30 28 26 24 23 21 19 18 17 16 15 15 14 15 16 18 19 21 23 23 24 25 26 28 29 31 34 38 43 46 49 50 53 57
37 35 34 34 33 32 31 29 27 25 24 22 20 19 18 16 15 14 13 12 11 11 12 15 17 19 19 20 20 21 22 23 25 26 28 31 35 40 45 48 50 54
36 35 34 33 31 29 27 25 24 23 22 21 20 19 17 15 13 12 11 10 9 10 10 12 15 16 17 18 18 17 18 18 19 21 23 25 28 32 38 43 47 50
36 34 31 29 27 25 24 23 23 23 22 20 19 16 14 13 11 10 9 8 8 9 10 11 13 15 17 17 18 17 16 16 16 17 19 21 22 25 29 35 41 47
34 32 30 28 26 25 24 23 22 20 19 17 15 14 12 11 9 8 8 7 7 8 10 11 13 15 16 17 18 18 16 16 16 16 17 18 19 21 23 27 34 40
32 31 30 28 26 24 23 21 19 17 16 14 13 12 11 10 9 9 8 8 8 9 11 12 13 15 17 17 18 18 18 17 16 16 16 17 18 20 21 23 28 34
32 30 29 27 24 22 20 19 18 16 14 13 12 11 10 10 10 10 9 9 9 10 12 15 16 17 19 18 18 20 20 18 17 16 16 17 17 19 21 22 24 29
30 28 26 23 21 19 18 17 16 15 14 13 12 12 11 11 10 11 11 10 11 11 13 15 17 19 20 20 20 22 22 20 18 17 17 17 17 18 20 22 24 28
26 24 22 21 19 18 17 16 15 15 14 14 13 13 12 11 11 11 11 12 13 13 13 14 17 21 22 22 22 24 24 23 21 19 19 19 18 18 20 22 25 28
23 21 21 20 19 17 16 15 15 15 14 14 14 13 13 12 11 11 12 13 14 15 15 15 17 22 24 24 24 26 27 26 23 22 21 20 20 20 21 22 24 28